Погода в Балаклее

Украина / Харьковская область     49˚27′05″N   36˚50′32″E
темп.,
°C
ветер,
м/с
пор.,
м/с
влажн.,
%
обл.,
%
осадки,
мм/ч
давл.,
гПа
погр.,
м
6 декабря, вс
вс623:00−5˚в512470 0.0 1037379
02:00−6˚в511480 0.0 1038358
05:00−6˚в512550 0.0 1038359
08:00−6˚в511580 0.0 1038386
11:00−4˚в710570 0.0 1038546
14:00−3˚в710530 0.0 1037645
17:00−5˚в713620 0.0 1038546
20:00−6˚в612680 0.0 1038541
7 декабря, пн
пн723:00−7˚в613670 0.0 1038522
02:00−7˚в613660 0.0 1038498
05:00−8˚в613660 0.0 1037473
08:00−7˚в714590 0.0 1037516
11:00−4˚в813440 0.0 1037606
14:00−3˚в812420 0.0 1036629
17:00−5˚в613530 0.0 1036529
20:00−6˚в714620 0.0 1036493
8 декабря, вт
вт823:00−7˚в614630 0.0 1035462
02:00−7˚в613620 0.0 1035440
05:00−7˚в713620 0.0 1034435
08:00−7˚в715600 0.0 1034469
11:00−3˚в814450 0.0 1033565
14:00−2˚в713400 0.0 1032606
17:00−4˚в614490 0.0 1032511
20:00−5˚в614550 0.0 1032453
9 декабря, ср
ср923:00−5˚в613550 0.0 1032442
02:00−6˚в613540 0.0 1032417
05:00−6˚в612570 0.0 1032429
08:00−7˚в612600 0.0 1032436
11:00−3˚вюв712530 0.0 1032560
14:00−2˚вюв711547 0.0 1031641
17:00−4˚в6135870 0.0 1031506
20:00−4˚вюв6135964 0.0 1032485
10 декабря, чт
чт1023:00−4˚вюв6116588 0.0 1032448
02:00−4˚вюв5106993 0.0 1032412
05:00−5˚вюв5117765 0.0 1031378
08:00−5˚вюв5127841 0.0 1032381
11:00−2˚вюв6106633 0.0 1032458
14:00−1˚вюв6106518 0.0 1031475
17:00−3˚вюв612697 0.0 1031378
20:00−3˚вюв6126544 0.0 1030394